Skip to main content

Dunas de Mira

ID 1210704 · 40.4460, -8.7617 map

Latest reading · 2026-05-09 19:00 (Europe/Lisbon)

Temperature
16.9 °C
Humidity
72 %
Pressure
Precipitation
0.3 mm
Radiation
299 W/m²
Wind speed
21.2 km/h
Wind direction
SW · South-west

24-hour history

Time (Europe/Lisbon) Temp Humidity Pressure Rain Wind Dir
2026-05-09 19:00 16.9 °C 72 % 0.3 mm 21.2 km/h SW
2026-05-09 18:00 17.6 °C 71 % 0.0 mm 22.0 km/h SW
2026-05-09 17:00 19.0 °C 68 % 0.0 mm 33.1 km/h SW
2026-05-09 16:00 18.5 °C 67 % 0.0 mm 29.2 km/h SW
2026-05-09 15:00 18.4 °C 69 % 0.0 mm 28.4 km/h SW
2026-05-09 14:00 18.1 °C 76 % 0.1 mm 9.0 km/h S
2026-05-09 13:00 17.0 °C 78 % 2.5 mm 8.6 km/h SW
2026-05-09 12:00 18.1 °C 70 % 0.0 mm 10.4 km/h S
2026-05-09 11:00 16.2 °C 83 % 0.0 mm 7.2 km/h SE
2026-05-09 10:00 13.7 °C 93 % 1.2 mm 3.6 km/h S
2026-05-09 09:00 13.0 °C 93 % 1.1 mm 5.0 km/h S
2026-05-09 08:00 13.3 °C 89 % 3.0 mm 4.0 km/h E
2026-05-09 07:00 14.0 °C 84 % 0.0 mm 7.2 km/h S
2026-05-09 06:00 13.8 °C 84 % 0.0 mm 4.7 km/h S
2026-05-09 05:00 13.5 °C 84 % 0.0 mm 7.9 km/h S
2026-05-09 04:00 13.3 °C 87 % 0.0 mm 2.5 km/h S
2026-05-09 03:00 13.5 °C 89 % 0.0 mm 8.3 km/h S
2026-05-09 02:00 13.6 °C 94 % 0.1 mm 4.7 km/h S
2026-05-09 01:00 13.8 °C 93 % 0.2 mm 2.5 km/h E
2026-05-09 00:00 14.2 °C 90 % 2.5 mm 10.8 km/h E
2026-05-08 23:00 14.8 °C 85 % 0.4 mm 7.9 km/h S
2026-05-08 22:00 15.8 °C 76 % 0.0 mm 2.9 km/h S
2026-05-08 21:00 16.6 °C 69 % 0.0 mm 4.7 km/h SW
2026-05-08 20:00 18.4 °C 61 % 0.0 mm 8.6 km/h NW